This is the latest recevied weather packets stored in our database for station/object DL2GPS-3. If no packets are shown the sender has not sent any weather packets the latest 10 day(s).
| Time | Temp. | Humidity | Pressure | Rain* | Wind** | Luminosity | Snow |
|---|---|---|---|---|---|---|---|
| 1787859464 | 23.33° C | 66% | 1015.8 hPa | - | - | - | - |
| 1787858859 | 23.33° C | 65% | 1015.9 hPa | - | - | - | - |
| 1787858253 | 23.89° C | 60% | 1015.8 hPa | - | - | - | - |
| 1787857648 | 23.89° C | 60% | 1015.7 hPa | - | - | - | - |
| 1787857044 | 23.89° C | 57% | 1016.3 hPa | - | - | - | - |
| 1787856439 | 23.89° C | 56% | 1016.3 hPa | - | - | - | - |
| 1787855834 | 23.89° C | 56% | 1016.1 hPa | - | - | - | - |
| 1787855229 | 23.89° C | 56% | 1016.1 hPa | - | - | - | - |
| 1787854623 | 23.89° C | 57% | 1016.1 hPa | - | - | - | - |
| 1787854018 | 23.89° C | 58% | 1016 hPa | - | - | - | - |
| 1787853414 | 23.89° C | 59% | 1016 hPa | - | - | - | - |
| 1787852809 | 24.44° C | 60% | 1016 hPa | - | - | - | - |
| 1787852204 | 25° C | 57% | 1016 hPa | - | - | - | - |
| 1787851598 | 24.44° C | 60% | 1016.3 hPa | - | - | - | - |
| 1787850995 | 25.56° C | 57% | 1016.4 hPa | - | - | - | - |
| 1787850389 | 26.11° C | 52% | 1016.4 hPa | - | - | - | - |
| 1787849783 | 26.11° C | 53% | 1016.6 hPa | - | - | - | - |
| 1787849178 | 26.11° C | 51% | 1016.6 hPa | - | - | - | - |
| 1787848574 | 26.67° C | 49% | 1016.9 hPa | - | - | - | - |
| 1787847969 | 27.22° C | 47% | 1017 hPa | - | - | - | - |
| 1787847364 | 27.22° C | 48% | 1016.9 hPa | - | - | - | - |
| 1787846759 | 27.22° C | 47% | 1016.9 hPa | - | - | - | - |
| 1787846154 | 28.33° C | 44% | 1017 hPa | - | - | - | - |
| 1787845550 | 28.33° C | 43% | 1017 hPa | - | - | - | - |
| 1787844950 | 28.33° C | 41% | 1017 hPa | - | - | - | - |
* Rain since midnight (hover to see other rain measurements)
** Current wind speed in m/s (hover to see current wind gust speed)